N81BZ KBKL-KTEB

Flight info

Callsign N81BZ
Flight time 1h 1m
Altitude 41000
Route WHARS MYCAR JHW LVZ5
Aircraft CL60/M-SBDE1E2E3FGHIJ1J4J5J7M3RWXYZ/LB1V1D1

Departure

Time 2026-04-29 13:56
Airport Burke Lakefront Airport (KBKL)

Arrival

Time 2026-04-29 14:57
Airport Teterboro Airport (KTEB)
Time Latitude Longitude Altitude Speed Heading
2026-04-29 12:40 41.51317 -81.68806 583 ft 0 kts 238°
2026-04-29 13:51 41.51316 -81.68806 583 ft 1 kts 238°
2026-04-29 13:51 41.51297 -81.68864 583 ft 6 kts 256°
2026-04-29 13:51 41.51287 -81.68929 583 ft 9 kts 259°
2026-04-29 13:52 41.51265 -81.69026 583 ft 9 kts 243°
2026-04-29 13:52 41.51235 -81.69105 583 ft 6 kts 268°
2026-04-29 13:52 41.51235 -81.69110 582 ft 0 kts 275°
2026-04-29 13:53 41.51235 -81.69112 582 ft 0 kts 277°
2026-04-29 13:54 41.51250 -81.69137 582 ft 7 kts 331°
2026-04-29 13:54 41.51286 -81.69133 582 ft 7 kts 56°
2026-04-29 13:55 41.51289 -81.69125 582 ft 0 kts 57°
2026-04-29 13:55 41.51323 -81.69054 583 ft 43 kts 57°
2026-04-29 13:55 41.51677 -81.68306 582 ft 140 kts 58°
2026-04-29 13:55 41.52287 -81.67002 1010 ft 179 kts 58°
2026-04-29 13:56 41.53021 -81.65595 1786 ft 202 kts 46°
2026-04-29 13:56 41.54229 -81.64328 1976 ft 234 kts 33°
2026-04-29 13:56 41.55786 -81.63699 1991 ft 236 kts
2026-04-29 13:56 41.57318 -81.64358 2006 ft 239 kts 327°
2026-04-29 13:57 41.58321 -81.66102 2005 ft 239 kts 290°
2026-04-29 13:57 41.58385 -81.68282 2013 ft 235 kts 253°
2026-04-29 13:57 41.57646 -81.70226 2010 ft 235 kts 241°
2026-04-29 13:57 41.57232 -81.72276 1997 ft 233 kts 274°
2026-04-29 13:58 41.57799 -81.74263 1999 ft 229 kts 313°
2026-04-29 13:58 41.59105 -81.75401 2000 ft 232 kts 340°
2026-04-29 13:58 41.60787 -81.75770 2697 ft 259 kts
2026-04-29 13:58 41.62511 -81.75240 4207 ft 261 kts 24°
2026-04-29 13:59 41.64003 -81.73899 5478 ft 275 kts 46°
2026-04-29 13:59 41.65063 -81.71758 6751 ft 287 kts 62°
2026-04-29 13:59 41.65993 -81.69365 7957 ft 299 kts 62°
2026-04-29 13:59 41.66969 -81.66872 9143 ft 311 kts 62°
2026-04-29 14:00 41.67977 -81.64304 10322 ft 321 kts 62°
2026-04-29 14:00 41.69014 -81.61665 11501 ft 328 kts 63°
2026-04-29 14:00 41.70074 -81.58962 12663 ft 335 kts 63°
2026-04-29 14:00 41.71171 -81.56168 13473 ft 347 kts 63°
2026-04-29 14:01 41.72302 -81.53284 13849 ft 349 kts 63°
2026-04-29 14:01 41.73431 -81.50410 13972 ft 349 kts 64°
2026-04-29 14:01 41.74556 -81.47543 13985 ft 348 kts 63°
2026-04-29 14:01 41.75676 -81.44688 13984 ft 347 kts 63°
2026-04-29 14:02 41.76797 -81.41830 13987 ft 347 kts 64°
2026-04-29 14:02 41.77926 -81.38948 13985 ft 347 kts 64°
2026-04-29 14:02 41.78933 -81.36050 13983 ft 346 kts 72°
2026-04-29 14:02 41.79708 -81.32926 14026 ft 366 kts 75°
2026-04-29 14:03 41.80523 -81.29572 14624 ft 386 kts 75°
2026-04-29 14:03 41.81368 -81.26118 15645 ft 390 kts 75°
2026-04-29 14:03 41.82206 -81.22697 16656 ft 393 kts 75°
2026-04-29 14:03 41.83063 -81.19199 17580 ft 398 kts 75°
2026-04-29 14:04 41.83925 -81.15700 18470 ft 402 kts 75°
2026-04-29 14:04 41.84812 -81.12093 19266 ft 409 kts 75°
2026-04-29 14:04 41.85699 -81.08474 20032 ft 415 kts 75°
2026-04-29 14:04 41.86596 -81.04780 20833 ft 420 kts 75°
2026-04-29 14:05 41.87492 -81.01066 21647 ft 423 kts 75°
2026-04-29 14:05 41.88396 -80.97315 22331 ft 429 kts 74°
2026-04-29 14:05 41.89318 -80.93483 23019 ft 434 kts 74°
2026-04-29 14:05 41.90252 -80.89607 23720 ft 439 kts 74°
2026-04-29 14:06 41.91200 -80.85670 24358 ft 445 kts 73°
2026-04-29 14:06 41.92150 -80.81721 25054 ft 448 kts 73°
2026-04-29 14:06 41.93011 -80.77666 25637 ft 454 kts 78°
2026-04-29 14:06 41.93691 -80.73528 26170 ft 461 kts 79°
2026-04-29 14:07 41.94378 -80.69289 26673 ft 468 kts 79°
2026-04-29 14:07 41.95070 -80.65019 27203 ft 473 kts 79°
2026-04-29 14:07 41.95764 -80.60733 27740 ft 478 kts 79°
2026-04-29 14:07 41.96477 -80.56321 28267 ft 482 kts 79°
2026-04-29 14:08 41.97188 -80.51911 28814 ft 486 kts 79°
2026-04-29 14:08 41.97895 -80.47520 29301 ft 490 kts 79°
2026-04-29 14:08 41.98624 -80.42972 29736 ft 495 kts 79°
2026-04-29 14:08 41.99343 -80.38471 30223 ft 498 kts 78°
2026-04-29 14:09 42.00068 -80.33921 30639 ft 502 kts 79°
2026-04-29 14:09 42.00798 -80.29329 31033 ft 505 kts 79°
2026-04-29 14:09 42.01534 -80.24694 31373 ft 509 kts 79°
2026-04-29 14:09 42.02277 -80.20001 31724 ft 512 kts 79°
2026-04-29 14:10 42.03015 -80.15335 32039 ft 515 kts 79°
2026-04-29 14:10 42.03759 -80.10616 32346 ft 518 kts 79°
2026-04-29 14:10 42.04507 -80.05861 32680 ft 521 kts 79°
2026-04-29 14:10 42.05258 -80.01075 32925 ft 524 kts 79°
2026-04-29 14:11 42.06008 -79.96276 33182 ft 528 kts 79°
2026-04-29 14:11 42.06768 -79.91401 33391 ft 531 kts 79°
2026-04-29 14:11 42.07515 -79.86600 33637 ft 533 kts 79°
2026-04-29 14:11 42.08284 -79.81642 33915 ft 535 kts 79°
2026-04-29 14:12 42.09036 -79.76779 34227 ft 535 kts 79°
2026-04-29 14:12 42.09787 -79.71903 34524 ft 535 kts 79°
2026-04-29 14:12 42.10541 -79.66998 34794 ft 534 kts 79°
2026-04-29 14:12 42.11293 -79.62083 35062 ft 534 kts 78°
2026-04-29 14:13 42.12032 -79.57242 35283 ft 533 kts 78°
2026-04-29 14:13 42.12778 -79.52341 35547 ft 532 kts 78°
2026-04-29 14:13 42.13515 -79.47485 35764 ft 532 kts 78°
2026-04-29 14:13 42.14261 -79.42554 36012 ft 532 kts 78°
2026-04-29 14:14 42.14992 -79.37724 36325 ft 530 kts 78°
2026-04-29 14:14 42.15732 -79.32818 36600 ft 530 kts 79°
2026-04-29 14:14 42.16461 -79.27963 36849 ft 530 kts 79°
2026-04-29 14:14 42.17169 -79.23122 37083 ft 530 kts 81°
2026-04-29 14:15 42.17612 -79.18162 37336 ft 528 kts 88°
2026-04-29 14:15 42.17659 -79.13221 37558 ft 526 kts 95°
2026-04-29 14:15 42.17320 -79.08339 37737 ft 525 kts 101°
2026-04-29 14:15 42.16598 -79.03487 37889 ft 523 kts 108°
2026-04-29 14:16 42.15556 -78.98854 38067 ft 521 kts 112°
2026-04-29 14:16 42.14386 -78.94202 38269 ft 521 kts 113°
2026-04-29 14:16 42.13232 -78.89611 38460 ft 521 kts 112°
2026-04-29 14:16 42.12064 -78.84970 38608 ft 521 kts 112°
2026-04-29 14:17 42.10889 -78.80307 38792 ft 521 kts 112°
2026-04-29 14:17 42.09731 -78.75720 38904 ft 523 kts 112°
2026-04-29 14:17 42.08566 -78.71115 39090 ft 521 kts 112°
2026-04-29 14:17 42.07391 -78.66475 39297 ft 519 kts 112°
2026-04-29 14:18 42.06224 -78.61877 39485 ft 518 kts 112°
2026-04-29 14:18 42.05072 -78.57343 39667 ft 516 kts 112°
2026-04-29 14:18 42.03917 -78.52805 39906 ft 513 kts 112°
2026-04-29 14:18 42.02762 -78.48274 40268 ft 507 kts 112°
2026-04-29 14:19 42.01635 -78.43858 40647 ft 500 kts 112°
2026-04-29 14:19 42.00512 -78.39469 40895 ft 497 kts 111°
2026-04-29 14:19 41.98219 -78.30544 40903 ft 503 kts 112°
2026-04-29 14:20 41.95922 -78.21632 40905 ft 507 kts 112°
2026-04-29 14:20 41.93610 -78.12695 40914 ft 509 kts 112°
2026-04-29 14:21 41.91270 -78.03679 40929 ft 510 kts 112°
2026-04-29 14:21 41.88927 -77.94680 40922 ft 511 kts 112°
2026-04-29 14:22 41.86569 -77.85660 40923 ft 511 kts 112°
2026-04-29 14:22 41.84222 -77.76717 40923 ft 511 kts 112°
2026-04-29 14:23 41.81847 -77.67699 40927 ft 512 kts 112°
2026-04-29 14:23 41.79474 -77.58722 40933 ft 512 kts 112°
2026-04-29 14:24 41.77081 -77.49703 40941 ft 513 kts 113°
2026-04-29 14:24 41.74688 -77.40719 40941 ft 513 kts 113°
2026-04-29 14:25 41.72273 -77.31680 40947 ft 513 kts 114°
2026-04-29 14:25 41.69867 -77.22708 40936 ft 513 kts 113°
2026-04-29 14:26 41.68660 -77.18227 40615 ft 521 kts 114°
2026-04-29 14:26 41.67416 -77.13619 39990 ft 527 kts 114°
2026-04-29 14:26 41.66173 -77.09013 39310 ft 527 kts 114°
2026-04-29 14:26 41.64928 -77.04411 38583 ft 528 kts 114°
2026-04-29 14:27 41.63691 -76.99844 37894 ft 530 kts 115°
2026-04-29 14:27 41.62418 -76.95161 37187 ft 531 kts 114°
2026-04-29 14:27 41.61164 -76.90549 36489 ft 532 kts 115°
2026-04-29 14:28 41.58629 -76.81263 35060 ft 538 kts 115°
2026-04-29 14:28 41.57348 -76.76580 34373 ft 537 kts 115°
2026-04-29 14:28 41.56073 -76.71923 33623 ft 533 kts 115°
2026-04-29 14:28 41.54815 -76.67334 32957 ft 528 kts 115°
2026-04-29 14:29 41.53543 -76.62717 32267 ft 528 kts 115°
2026-04-29 14:29 41.52273 -76.58109 31562 ft 530 kts 114°
2026-04-29 14:29 41.51011 -76.53540 30880 ft 530 kts 114°
2026-04-29 14:29 41.49736 -76.48933 30167 ft 528 kts 114°
2026-04-29 14:30 41.48479 -76.44392 29482 ft 521 kts 114°
2026-04-29 14:30 41.47233 -76.39898 28799 ft 514 kts 114°
2026-04-29 14:30 41.46009 -76.35494 28132 ft 506 kts 114°
2026-04-29 14:30 41.44799 -76.31142 27466 ft 498 kts 114°
2026-04-29 14:31 41.43596 -76.26822 26817 ft 492 kts 114°
2026-04-29 14:31 41.42431 -76.22649 26174 ft 485 kts 114°
2026-04-29 14:31 41.41262 -76.18476 25529 ft 479 kts 114°
2026-04-29 14:31 41.40096 -76.14324 24911 ft 472 kts 114°
2026-04-29 14:32 41.38960 -76.10281 24302 ft 466 kts 112°
2026-04-29 14:32 41.37833 -76.06277 23684 ft 460 kts 113°
2026-04-29 14:32 41.36723 -76.02345 23101 ft 454 kts 112°
2026-04-29 14:32 41.35617 -75.98429 22478 ft 449 kts 113°
2026-04-29 14:33 41.34533 -75.94597 21910 ft 442 kts 113°
2026-04-29 14:33 41.33450 -75.90779 21318 ft 439 kts 113°
2026-04-29 14:33 41.32389 -75.87045 20752 ft 434 kts 113°
2026-04-29 14:33 41.31333 -75.83334 20186 ft 429 kts 113°
2026-04-29 14:34 41.30277 -75.79626 19624 ft 424 kts 113°
2026-04-29 14:34 41.29228 -75.75948 19057 ft 422 kts 113°
2026-04-29 14:34 41.28201 -75.72348 18503 ft 416 kts 113°
2026-04-29 14:34 41.27169 -75.68793 18070 ft 411 kts 115°
2026-04-29 14:35 41.26052 -75.65336 17962 ft 409 kts 117°
2026-04-29 14:35 41.24881 -75.61844 17963 ft 410 kts 116°
2026-04-29 14:35 41.23724 -75.58389 17952 ft 409 kts 116°
2026-04-29 14:35 41.22580 -75.54975 17970 ft 410 kts 117°
2026-04-29 14:36 41.21406 -75.51475 17973 ft 410 kts 116°
2026-04-29 14:36 41.20260 -75.48061 17888 ft 411 kts 116°
2026-04-29 14:36 41.19101 -75.44611 17531 ft 402 kts 116°
2026-04-29 14:36 41.17985 -75.41283 17138 ft 387 kts 116°
2026-04-29 14:37 41.16908 -75.38079 16584 ft 374 kts 116°
2026-04-29 14:37 41.15860 -75.34964 15980 ft 363 kts 116°
2026-04-29 14:37 41.14849 -75.31966 15276 ft 355 kts 116°
2026-04-29 14:37 41.13847 -75.28996 14520 ft 349 kts 115°
2026-04-29 14:38 41.12866 -75.26091 13777 ft 343 kts 115°
2026-04-29 14:38 41.11910 -75.23263 13032 ft 338 kts 115°
2026-04-29 14:38 41.10952 -75.20435 12286 ft 333 kts 115°
2026-04-29 14:38 41.10014 -75.17665 11537 ft 329 kts 115°
2026-04-29 14:39 41.09082 -75.14913 10782 ft 325 kts 115°
2026-04-29 14:39 41.08173 -75.12233 10035 ft 321 kts 115°
2026-04-29 14:39 41.07259 -75.09538 9281 ft 318 kts 115°
2026-04-29 14:39 41.06357 -75.06887 8531 ft 314 kts 116°
2026-04-29 14:40 41.05465 -75.04285 7771 ft 310 kts 116°
2026-04-29 14:40 41.04589 -75.01727 7028 ft 305 kts 115°
2026-04-29 14:40 41.03740 -74.99186 6358 ft 296 kts 115°
2026-04-29 14:40 41.02932 -74.96787 6079 ft 277 kts 116°
2026-04-29 14:41 41.02125 -74.94443 6048 ft 278 kts 116°
2026-04-29 14:41 41.01330 -74.92144 6021 ft 275 kts 116°
2026-04-29 14:41 41.00530 -74.89825 6011 ft 276 kts 116°
2026-04-29 14:41 40.99736 -74.87521 6015 ft 277 kts 116°
2026-04-29 14:42 40.98931 -74.85188 6020 ft 278 kts 115°
2026-04-29 14:42 40.98119 -74.82880 6015 ft 277 kts 116°
2026-04-29 14:42 40.97287 -74.80567 6019 ft 278 kts 116°
2026-04-29 14:42 40.96473 -74.78232 6017 ft 277 kts 110°
2026-04-29 14:43 40.96265 -74.75690 5781 ft 281 kts 81°
2026-04-29 14:43 40.96837 -74.73262 5394 ft 278 kts 69°
2026-04-29 14:43 40.97566 -74.70918 5035 ft 272 kts 68°
2026-04-29 14:43 40.98298 -74.68656 4673 ft 266 kts 68°
2026-04-29 14:44 40.99039 -74.66426 4303 ft 262 kts 67°
2026-04-29 14:44 40.99770 -74.64233 3933 ft 257 kts 68°
2026-04-29 14:44 41.00486 -74.62096 3575 ft 255 kts 68°
2026-04-29 14:44 41.01217 -74.59963 3187 ft 254 kts 68°
2026-04-29 14:45 41.01945 -74.57843 2999 ft 250 kts 67°
2026-04-29 14:45 41.02663 -74.55743 2982 ft 252 kts 68°
2026-04-29 14:45 41.03382 -74.53647 2987 ft 253 kts 67°
2026-04-29 14:45 41.04115 -74.51499 2987 ft 253 kts 67°
2026-04-29 14:46 41.04673 -74.49326 2990 ft 251 kts 83°
2026-04-29 14:46 41.04851 -74.47038 2985 ft 250 kts 87°
2026-04-29 14:46 41.04984 -74.44736 2993 ft 250 kts 87°
2026-04-29 14:46 41.05120 -74.42427 2992 ft 250 kts 87°
2026-04-29 14:47 41.05254 -74.40136 2992 ft 249 kts 87°
2026-04-29 14:47 41.05387 -74.37907 3003 ft 235 kts 87°
2026-04-29 14:47 41.05513 -74.35782 3014 ft 227 kts 87°
2026-04-29 14:47 41.05645 -74.33697 2996 ft 229 kts 87°
2026-04-29 14:48 41.05772 -74.31580 2994 ft 229 kts 88°
2026-04-29 14:48 41.05895 -74.29502 2994 ft 229 kts 87°
2026-04-29 14:48 41.06020 -74.27397 2992 ft 219 kts 88°
2026-04-29 14:48 41.06140 -74.25523 3016 ft 195 kts 88°
2026-04-29 14:49 41.06253 -74.23766 3004 ft 189 kts 88°
2026-04-29 14:49 41.06367 -74.22025 2999 ft 188 kts 88°
2026-04-29 14:49 41.06478 -74.20302 2993 ft 188 kts 88°
2026-04-29 14:49 41.06591 -74.18581 2992 ft 187 kts 88°
2026-04-29 14:50 41.06705 -74.16851 2993 ft 187 kts 88°
2026-04-29 14:50 41.06817 -74.15138 2990 ft 187 kts 88°
2026-04-29 14:50 41.06930 -74.13404 2939 ft 189 kts 87°
2026-04-29 14:50 41.07037 -74.11674 2599 ft 190 kts 89°
2026-04-29 14:51 41.06786 -74.10027 2210 ft 180 kts 124°
2026-04-29 14:51 41.05894 -74.08991 2012 ft 160 kts 147°
2026-04-29 14:51 41.04992 -74.08206 2032 ft 158 kts 147°
2026-04-29 14:51 41.04068 -74.07416 1998 ft 158 kts 147°
2026-04-29 14:52 41.03164 -74.06649 1994 ft 159 kts 147°
2026-04-29 14:52 41.02239 -74.05864 1988 ft 158 kts 147°
2026-04-29 14:52 41.01303 -74.05101 1987 ft 158 kts 153°
2026-04-29 14:52 41.00238 -74.04724 1860 ft 159 kts 174°
2026-04-29 14:53 40.99152 -74.04768 1585 ft 151 kts 185°
2026-04-29 14:53 40.98151 -74.04929 1392 ft 140 kts 185°
2026-04-29 14:53 40.97190 -74.05057 1383 ft 137 kts 184°
2026-04-29 14:53 40.96236 -74.05145 1390 ft 137 kts 182°
2026-04-29 14:54 40.95298 -74.05210 1396 ft 131 kts 182°
2026-04-29 14:54 40.94401 -74.05269 1395 ft 127 kts 182°
2026-04-29 14:54 40.93543 -74.05328 1393 ft 126 kts 182°
2026-04-29 14:54 40.92674 -74.05392 1386 ft 125 kts 182°
2026-04-29 14:55 40.91790 -74.05458 1245 ft 126 kts 182°
2026-04-29 14:55 40.90923 -74.05524 1085 ft 124 kts 182°
2026-04-29 14:55 40.90051 -74.05591 922 ft 123 kts 182°
2026-04-29 14:55 40.89217 -74.05652 764 ft 123 kts 182°
2026-04-29 14:56 40.88343 -74.05719 668 ft 127 kts 182°
2026-04-29 14:56 40.87443 -74.05786 476 ft 127 kts 182°
2026-04-29 14:56 40.86578 -74.05849 241 ft 124 kts 183°
2026-04-29 14:56 40.85733 -74.05907 91 ft 122 kts 182°
2026-04-29 14:57 40.84939 -74.05957 13 ft 100 kts 183°
2026-04-29 14:57 40.84471 -74.05994 12 ft 40 kts 184°
2026-04-29 14:57 40.84298 -74.06065 11 ft 22 kts 226°
2026-04-29 14:57 40.84266 -74.06116 11 ft 0 kts 232°
2026-04-29 14:58 40.84261 -74.06130 11 ft 3 kts 261°
2026-04-29 14:58 40.84287 -74.06152 11 ft 5 kts
2026-04-29 14:58 40.84355 -74.06148 11 ft 14 kts
2026-04-29 14:58 40.84419 -74.06142 11 ft 8 kts
2026-04-29 14:59 40.84493 -74.06137 12 ft 11 kts
2026-04-29 14:59 40.84559 -74.06132 12 ft 7 kts
2026-04-29 14:59 40.84621 -74.06126 12 ft 10 kts
2026-04-29 14:59 40.84681 -74.06145 12 ft 11 kts 313°
2026-04-29 15:00 40.84739 -74.06243 12 ft 16 kts 307°
2026-04-29 15:00 40.84796 -74.06342 12 ft 15 kts 307°
2026-04-29 15:00 40.84851 -74.06432 12 ft 8 kts 308°
2026-04-29 15:00 40.84878 -74.06509 12 ft 10 kts 245°
2026-04-29 15:01 40.84816 -74.06599 12 ft 15 kts 228°
2026-04-29 15:01 40.84765 -74.06673 12 ft 12 kts 227°
2026-04-29 15:01 40.84700 -74.06737 12 ft 9 kts 149°
2026-04-29 15:01 40.84645 -74.06677 12 ft 12 kts 142°
2026-04-29 15:02 40.84577 -74.06594 12 ft 13 kts 129°
2026-04-29 15:02 40.84541 -74.06573 12 ft 3 kts 213°
2026-04-29 15:02 40.84537 -74.06576 12 ft 0 kts 227°